Location: Caltech
(34.1382°N, 118.1253°W)
Time: 22:17:31
(UTC-07:00)

Tiros 1 despin weight - All Passes

Search period start: 29 June 2015 00:00
Search period end: 09 July 2015 00:00
Orbit: 597 x 647 km, 48.2° (Epoch: 29 June)

Date Brightness Start Highest point End Pass type
(mag) Time Alt. Az. Time Alt. Az. Time Alt. Az.
29 Jun - 06:54:21 10° SSE 06:57:09 16° SE 07:00:05 10° E daylight
29 Jun - 08:33:46 10° SW 08:38:28 78° NW 08:43:06 10° NE daylight
29 Jun - 10:17:08 10° WNW 10:20:42 21° NNW 10:24:11 10° NNE daylight
29 Jun - 12:01:23 10° NNW 12:03:42 14° N 12:06:00 10° NNE daylight
29 Jun - 13:43:03 10° NNW 13:46:39 23° NNE 13:50:15 10° ENE daylight
29 Jun - 15:24:15 10° NW 15:28:46 86° SW 15:33:13 10° SE daylight
29 Jun - 17:08:21 10° WSW 17:09:56 11° SW 17:11:17 10° SSW daylight
30 Jun - 07:10:39 10° SSW 07:14:53 35° SE 07:19:08 10° ENE daylight
30 Jun - 08:52:05 10° WSW 08:56:31 41° NNW 09:00:54 10° NE daylight
30 Jun - 10:36:16 10° NW 10:39:08 16° NNW 10:41:58 10° NNE daylight
30 Jun - 12:19:36 10° NNW 12:22:15 15° N 12:24:54 10° NE daylight
30 Jun - 14:00:45 10° NW 14:04:56 36° NNE 14:09:05 10° E daylight
30 Jun - 15:42:25 10° WNW 15:46:37 39° SW 15:50:44 10° SSE daylight
01 Jul - 05:50:48 10° SE 05:51:32 10° SE 05:52:31 10° ESE daylight
01 Jul - 07:28:02 10° SW 07:32:43 75° SE 07:37:22 10° NE daylight
01 Jul - 09:10:50 10° W 09:14:45 25° NNW 09:18:37 10° NNE daylight
01 Jul - 10:55:15 10° NW 10:57:40 14° N 11:00:03 10° NNE daylight
01 Jul - 12:37:26 10° NNW 12:40:43 19° NNE 12:44:01 10° ENE daylight
01 Jul - 14:18:32 10° NW 14:23:03 67° NE 14:27:29 10° ESE daylight
01 Jul - 16:01:17 10° W 16:04:21 18° SW 16:07:15 10° S daylight
02 Jul - 06:05:31 10° S 06:09:14 24° SE 06:13:01 10° ENE daylight
02 Jul - 07:46:05 10° WSW 07:50:42 56° NNW 07:55:17 10° NE daylight
02 Jul - 09:29:53 10° WNW 09:33:09 18° NNW 09:36:19 10° NNE daylight
02 Jul - 11:13:45 10° NNW 11:16:13 14° N 11:18:41 10° NE daylight
02 Jul - 12:55:08 10° NW 12:59:04 28° NNE 13:02:59 10° E daylight
02 Jul - 14:36:31 10° WNW 14:40:58 58° SW 14:45:20 10° SE daylight
03 Jul - 06:22:27 10° SSW 06:27:01 51° SE 06:31:34 10° ENE daylight
03 Jul - 08:04:37 10° W 08:08:51 32° NNW 08:13:01 10° NE daylight
03 Jul - 09:48:59 10° NW 09:51:38 15° N 09:54:14 10° NNE daylight
03 Jul - 11:31:44 10° NNW 11:34:44 17° NNE 11:37:44 10° NE daylight
03 Jul - 13:12:50 10° NW 13:17:16 48° NNE 13:21:37 10° ESE daylight
03 Jul - 14:54:57 10° WNW 14:58:45 26° SW 15:02:26 10° S daylight
04 Jul - 05:00:45 10° SSE 05:03:36 16° SE 05:06:36 10° E visible
04 Jul - 06:40:12 10° SW 06:44:54 78° NW 06:49:35 10° NE daylight
04 Jul - 08:23:33 10° WNW 08:27:10 21° NNW 08:30:42 10° NNE daylight
04 Jul - 10:07:46 10° NNW 10:10:10 14° N 10:12:35 10° NNE daylight
04 Jul - 11:49:29 10° NNW 11:53:09 23° NNE 11:56:49 10° ENE daylight
04 Jul - 13:30:42 10° NW 13:35:16 85° SW 13:39:45 10° SE daylight
04 Jul - 15:14:48 10° WSW 15:16:26 11° SW 15:17:49 10° SSW daylight
05 Jul - 05:17:04 10° SSW 05:21:19 35° SE 05:25:37 10° ENE visible
05 Jul - 06:58:30 10° WSW 07:02:58 41° NNW 07:07:24 10° NE daylight
05 Jul - 08:42:39 10° NW 08:45:37 16° N 08:48:29 10° NNE daylight
05 Jul - 10:25:59 10° NNW 10:28:43 15° N 10:31:28 10° NE daylight
05 Jul - 12:07:10 10° NW 12:11:25 36° NNE 12:15:37 10° E daylight
05 Jul - 13:48:52 10° WNW 13:53:07 39° SW 13:57:15 10° SSE daylight
06 Jul - 03:57:07 10° SE 03:57:58 11° SE 03:59:06 10° ESE visible
06 Jul - 05:34:27 10° SW 05:39:09 75° SE 05:43:50 10° NE daylight
06 Jul - 07:17:14 10° W 07:21:12 26° NNW 07:25:05 10° NNE daylight
06 Jul - 09:01:38 10° NW 09:04:08 14° N 09:06:36 10° NNE daylight
06 Jul - 10:43:49 10° NNW 10:47:11 20° NNE 10:50:34 10° ENE daylight
06 Jul - 12:24:57 10° NW 12:29:31 68° NE 12:34:00 10° ESE daylight
06 Jul - 14:07:43 10° W 14:10:50 18° SW 14:13:46 10° S daylight
07 Jul - 04:11:55 10° S 04:15:39 24° SE 04:19:29 10° ENE visible
07 Jul - 05:52:29 10° WSW 05:57:07 56° NNW 06:01:45 10° NE daylight
07 Jul - 07:36:17 10° WNW 07:39:35 18° NNW 07:42:49 10° NNE daylight
07 Jul - 09:20:07 10° NNW 09:22:40 14° N 09:25:14 10° NE daylight
07 Jul - 11:01:31 10° NW 11:05:32 29° NNE 11:09:31 10° E daylight
07 Jul - 12:42:56 10° WNW 12:47:26 58° SW 12:51:50 10° SE daylight
08 Jul - 04:28:52 10° SSW 04:33:25 52° SE 04:38:00 10° ENE visible
08 Jul - 06:11:01 10° W 06:15:16 32° NNW 06:19:28 10° NE daylight
08 Jul - 07:55:22 10° NW 07:58:04 15° N 08:00:44 10° NNE daylight
08 Jul - 09:38:07 10° NNW 09:41:11 17° NNE 09:44:16 10° NE daylight
08 Jul - 11:19:14 10° NW 11:23:43 49° NNE 11:28:08 10° ESE daylight
08 Jul - 13:01:21 10° WNW 13:05:12 26° SW 13:08:56 10° S daylight
